Powrót do katalogu

DIAMANT R/B

AktywnyUNKNOWN
NORAD 2017·ROCKET BODY·🇫🇷 France

Wystrzelony Feb 17, 1966 z Hammaguir Space Track Range

Loading…

Następne Przeloty (najbliższe 24 godziny)

TLE

ŚwieżeSource: Space-Track

Epoka: Sep 14, 2026, 09:57 UTC

1 02017U 66013B   26257.41479933  .00001018  00000-0  27151-3 0  9997
2 02017  34.0630  55.1066 1033230  65.7650 304.7406 12.93785031781337

Śledź DIAMANT R/B w czasie rzeczywistym z AllMySat

Download on the App Store